EW1325 Weather Reports


time (UTC)temp
C
wind
direction
speed
KPH
gust
KPH
rain 1hr
cm
rain 24hr
cm
rain mn
cm
humidity
%
barometer
mb
20260510224019 17 167 0.0 0.0 0.00 0.36 0.03 80 1011.3
20260510223525 17 139 0.0 0.0 0.00 0.36 0.03 82 1011.4
20260510223019 17 156 0.0 0.0 0.00 0.36 0.03 82 1011.4
20260510222519 17 193 0.0 0.0 0.00 0.36 0.03 81 1011.4
20260510222018 17 127 0.0 0.0 0.00 0.36 0.03 81 1011.4
20260510221520 17 127 0.0 0.0 0.00 0.36 0.03 80 1011.3
20260510221019 17 113 0.0 0.0 0.00 0.36 0.03 82 1011.3
20260510220518 17 153 0.0 0.0 0.00 0.36 0.03 83 1011.4
20260510220020 17 151 0.0 0.0 0.00 0.36 0.03 83 1011.4
20260510215516 17 145 0.0 0.0 0.00 0.48 0.03 83 1011.2
20260510215016 17 145 0.0 0.0 0.00 0.48 0.03 83 1011.1
20260510214517 17 160 0.0 0.0 0.00 0.48 0.03 83 1011.2
20260510214016 17 209 0.0 0.0 0.03 0.48 0.03 82 1011.3
20260510213515 17 133 0.0 0.0 0.03 0.48 0.03 81 1011.4
20260510213016 17 138 0.0 0.0 0.03 0.48 0.03 80 1011.3
20260510212515 17 160 0.0 0.0 0.03 0.48 0.03 80 1011.1
20260510212015 17 158 0.0 0.0 0.03 0.48 0.03 80 1011.0
20260510211518 17 158 0.0 0.0 0.03 0.48 0.03 80 1011.0
20260510211014 17 217 0.0 0.0 0.03 0.48 0.03 81 1010.9
20260510210516 17 217 0.0 0.0 0.03 0.48 0.03 79 1011.0
20260510210016 17 257 0.0 0.0 0.03 0.48 0.03 81 1011.1
20260510205513 17 217 0.0 0.0 0.03 0.71 0.03 81 1011.2
20260510205014 18 146 0.0 0.0 0.03 0.71 0.03 80 1011.2
20260510204517 18 46 0.0 0.0 0.03 0.71 0.03 79 1011.1
20260510204012 19 35 0.0 0.0 0.00 0.69 0.00 80 1010.9
20260510203514 20 240 0.0 0.0 0.00 0.69 0.00 77 1010.7
20260510203013 20 161 0.0 0.0 0.00 0.69 0.00 76 1010.5
20260510202517 20 138 0.0 0.0 0.00 0.69 0.00 75 1010.4
20260510202011 20 179 0.0 0.0 0.00 0.69 0.00 75 1010.3
20260510201511 20 142 0.0 0.0 0.00 0.69 0.00 74 1010.3
20260510201013 20 148 0.0 0.0 0.00 0.69 0.00 73 1010.3
20260510200511 20 148 0.0 0.0 0.00 0.69 0.00 74 1010.3
20260510200035 20 131 0.0 0.0 0.00 0.69 0.00 74 1010.4
20260510195510 20 207 0.0 0.0 0.00 1.09 0.00 73 1010.4
20260510195010 21 207 0.0 0.0 0.00 1.09 0.00 73 1010.5
20260510194510 20 188 0.0 0.0 0.00 1.09 0.00 73 1010.4
20260510194010 20 155 0.0 0.0 0.00 1.09 0.00 72 1010.5
20260510193509 21 164 0.0 0.0 0.00 1.09 0.00 71 1010.5
20260510193020 21 201 0.0 0.0 0.00 1.09 0.00 71 1010.5
20260510192508 21 113 0.0 0.0 0.00 1.09 0.00 71 1010.4
20260510192008 21 186 0.0 0.0 0.00 1.09 0.00 71 1010.4
20260510191508 21 150 0.0 0.0 0.00 1.09 0.00 71 1010.4
20260510191007 21 156 0.0 0.0 0.00 1.09 0.00 71 1010.4
20260510190508 21 155 0.0 0.0 0.00 1.09 0.00 70 1010.4
20260510190020 21 205 0.0 0.0 0.00 1.09 0.00 70 1010.5
20260510185507 21 149 0.0 0.0 0.00 1.19 0.00 70 1010.6
20260510185006 21 196 0.0 0.0 0.00 1.19 0.00 71 1010.6
20260510184507 21 168 0.0 0.0 0.00 1.19 0.00 70 1010.7
20260510184006 21 232 0.0 0.0 0.00 1.19 0.00 72 1010.7
20260510183506 21 143 0.0 0.0 0.00 1.19 0.00 70 1010.7
20260510183013 21 172 0.0 0.0 0.00 1.19 0.00 70 1010.6
20260510182504 21 134 0.0 0.0 0.00 1.19 0.00 69 1010.7
20260510182006 21 208 0.0 0.0 0.00 1.19 0.00 69 1010.8
20260510181518 21 126 0.0 0.0 0.00 1.19 0.00 69 1010.8
20260510181004 21 158 0.0 0.0 0.00 1.19 0.00 69 1010.9
20260510180503 21 231 0.0 0.0 0.00 1.19 0.00 69 1011.0
20260510180004 21 164 0.0 0.0 0.00 1.19 0.00 68 1011.0
20260510175503 21 150 0.0 0.0 0.00 1.19 0.00 68 1011.0
20260510175003 21 139 0.0 0.0 0.00 1.19 0.00 69 1010.7
20260510174501 21 156 0.0 0.0 0.00 1.19 0.00 69 1010.8
20260510174101 21 212 0.0 0.0 0.00 1.19 0.00 69 1010.8
20260510173600 21 131 0.0 0.0 0.00 1.19 0.00 72 1010.7
20260510173106 21 194 0.0 0.0 0.00 1.19 0.00 73 1010.8
20260510172557 20 252 0.0 0.0 0.00 1.19 0.00 70 1010.8
20260510172057 20 159 0.0 0.0 0.00 1.19 0.00 73 1010.9
20260510171558 20 300 0.0 0.0 0.00 1.19 0.00 73 1011.0
20260510171056 20 160 0.0 0.0 0.00 1.19 0.00 73 1011.0
20260510170556 20 155 0.0 0.0 0.00 1.19 0.00 74 1011.0
20260510170101 20 150 0.0 0.0 0.00 1.19 0.00 72 1011.0
20260510165552 20 197 0.0 0.0 0.00 1.19 0.00 76 1011.1
20260510165052 20 211 0.0 0.0 0.00 1.19 0.00 74 1011.2
20260510164553 20 170 0.0 0.0 0.00 1.19 0.00 74 1011.3
20260510164050 20 152 0.0 0.0 0.00 1.19 0.00 75 1011.4
20260510163550 20 131 0.0 0.0 0.00 1.19 0.00 75 1011.3
20260510163050 20 162 0.0 0.0 0.00 1.19 0.00 76 1011.4
20260510162550 20 214 0.0 0.0 0.00 1.19 0.00 75 1011.5
20260510162049 20 138 0.0 0.0 0.00 1.19 0.00 75 1011.5
20260510161546 20 166 0.0 0.0 0.00 1.19 0.00 76 1011.4
20260510161047 19 208 0.0 0.0 0.00 1.19 0.00 76 1011.5
20260510160545 19 264 0.0 0.0 0.00 1.19 0.00 79 1011.4
20260510160047 18 203 0.0 0.0 0.00 1.19 0.00 79 1011.5
20260510155545 18 200 0.0 0.0 0.00 1.19 0.00 80 1011.5
20260510155041 18 291 0.0 0.0 0.00 1.19 0.00 79 1011.7
20260510154543 18 195 0.0 0.0 0.00 1.19 0.00 82 1011.6
20260510154040 17 163 0.0 0.0 0.00 1.19 0.00 82 1011.7
20260510153536 17 141 0.0 0.0 0.00 1.19 0.00 83 1011.9
20260510153041 17 174 0.0 0.0 0.00 1.19 0.00 84 1011.9
20260510152538 17 129 0.0 0.0 0.00 1.19 0.00 84 1011.9
20260510152034 17 269 0.0 0.0 0.00 1.19 0.00 87 1011.9
20260510151535 16 239 0.0 0.0 0.00 1.19 0.00 85 1011.9
20260510151032 16 151 0.0 0.0 0.00 1.19 0.00 86 1012.0
20260510150531 16 150 0.0 0.0 0.00 1.19 0.00 86 1012.1
20260510150030 16 151 0.0 0.0 0.00 1.19 0.00 87 1012.0
20260510145530 16 211 0.0 0.0 0.00 1.19 0.00 87 1012.0
20260510145029 15 149 0.0 0.0 0.00 1.19 0.00 88 1011.9
20260510144529 15 144 0.0 0.0 0.00 1.19 0.00 88 1011.9
20260510144025 15 264 0.0 0.0 0.00 1.19 0.00 89 1011.9
20260510143524 15 124 0.0 0.0 0.00 1.19 0.00 90 1011.9
20260510143031 15 174 0.0 0.0 0.00 1.19 0.00 91 1011.9
20260510142521 15 360 0.0 0.0 0.00 1.19 0.00 92 1011.8
20260510142020 14 360 0.0 0.0 0.00 1.19 0.00 92 1011.9
20260510141519 14 298 0.0 0.0 0.00 1.19 0.00 92 1011.9
20260510141018 13 247 0.0 0.0 0.00 1.19 0.00 93 1011.8
20260510140515 13 249 0.0 0.0 0.00 1.19 0.00 93 1011.8
20260510140015 13 276 0.0 0.0 0.00 1.19 0.00 94 1011.8
20260510135513 13 170 0.0 0.0 0.00 1.19 0.00 94 1011.7
20260510135012 13 160 0.0 0.0 0.00 1.19 0.00 94 1011.7
20260510134512 13 139 0.0 0.0 0.00 1.19 0.00 95 1011.7
20260510134012 13 222 0.0 0.0 0.00 1.19 0.00 95 1011.8
20260510133511 13 146 0.0 0.0 0.00 1.19 0.00 95 1011.9
20260510133025 13 140 0.0 0.0 0.00 1.19 0.00 96 1011.9
20260510132514 13 166 0.0 0.0 0.00 1.19 0.00 96 1011.9
20260510132010 13 131 0.0 0.0 0.00 1.19 0.00 96 1011.9
20260510131509 13 163 0.0 0.0 0.00 1.19 0.00 97 1011.7
20260510131009 12 164 0.0 1.6 0.00 1.19 0.00 97 1011.8
20260510130509 13 158 0.0 1.6 0.00 1.19 0.00 97 1011.9
20260510130008 13 168 0.0 0.0 0.00 1.19 0.00 98 1011.9
20260510125507 13 168 0.0 0.0 0.00 1.22 0.00 98 1011.9
20260510125006 12 169 0.0 0.0 0.00 1.22 0.00 98 1011.8
20260510124508 12 280 0.0 0.0 0.00 1.22 0.00 98 1011.8
20260510124007 12 184 0.0 0.0 0.00 1.22 0.00 98 1011.8
20260510123504 12 282 0.0 0.0 0.00 1.22 0.00 98 1011.7
20260510123003 12 281 0.0 0.0 0.00 1.22 0.00 98 1011.6
20260510122503 12 308 0.0 0.0 0.00 1.22 0.00 98 1011.5
20260510122000 12 264 0.0 0.0 0.00 1.22 0.00 98 1011.5
20260510121559 12 193 0.0 0.0 0.00 1.22 0.00 98 1011.5
20260510121058 11 193 0.0 0.0 0.00 1.22 0.00 98 1011.4
20260510120557 11 193 0.0 0.0 0.00 1.22 0.00 98 1011.5
20260510120057 11 191 0.0 0.0 0.00 1.22 0.00 99 1011.4
20260510115600 11 191 0.0 0.0 0.00 1.22 0.00 99 1011.4
20260510115055 11 191 0.0 0.0 0.00 1.22 0.00 98 1011.2
20260510114555 11 191 0.0 0.0 0.00 1.22 0.00 98 1011.2
20260510114054 11 191 0.0 0.0 0.00 1.22 0.00 98 1011.1
20260510113554 11 157 0.0 0.0 0.00 1.22 0.00 98 1011.1
20260510113054 11 160 0.0 0.0 0.00 1.22 0.00 98 1011.4
20260510112553 11 160 0.0 0.0 0.00 1.22 0.00 98 1011.2
20260510112052 11 205 0.0 0.0 0.00 1.22 0.00 98 1011.1
20260510111558 11 200 0.0 0.0 0.00 1.22 0.00 98 1011.1
20260510111052 11 211 0.0 0.0 0.00 1.22 0.00 99 1011.0
20260510110552 11 348 0.0 0.0 0.00 1.22 0.00 99 1010.9
20260510110052 11 349 0.0 0.0 0.00 1.22 0.00 99 1011.0
20260510105551 11 349 0.0 0.0 0.00 1.22 0.00 99 1010.9
20260510105051 11 349 0.0 0.0 0.00 1.22 0.00 98 1010.9
20260510104552 11 349 0.0 0.0 0.00 1.22 0.00 98 1010.9
20260510104053 11 280 0.0 0.0 0.00 1.22 0.00 98 1010.8
20260510103551 11 279 0.0 0.0 0.00 1.22 0.00 98 1010.6
20260510103050 11 198 0.0 0.0 0.00 1.22 0.00 98 1010.6
20260510102550 10 195 0.0 0.0 0.00 1.22 0.00 98 1010.4
20260510102052 10 179 0.0 0.0 0.00 1.22 0.00 98 1010.5
20260510101551 10 214 0.0 0.0 0.00 1.22 0.00 98 1010.5
20260510101049 10 215 0.0 0.0 0.00 1.22 0.00 98 1010.7
20260510100549 10 204 0.0 0.0 0.00 1.22 0.00 98 1010.7
20260510100049 10 204 0.0 0.0 0.00 1.22 0.00 98 1010.9
20260510095548 10 204 0.0 0.0 0.00 1.22 0.00 98 1010.9
20260510095046 10 205 0.0 0.0 0.00 1.22 0.00 98 1010.9
20260510094547 11 205 0.0 0.0 0.00 1.22 0.00 98 1010.9
20260510094046 11 230 0.0 0.0 0.00 1.22 0.00 98 1010.8
20260510093545 11 158 0.0 0.0 0.00 1.22 0.00 98 1010.8
20260510093045 11 158 0.0 0.0 0.00 1.22 0.00 98 1010.8
20260510092545 11 158 0.0 0.0 0.00 1.22 0.00 98 1010.8
20260510092043 11 200 0.0 0.0 0.00 1.22 0.00 98 1010.9
20260510091543 11 200 0.0 0.0 0.00 1.22 0.00 98 1010.6
20260510091044 11 200 0.0 0.0 0.00 1.22 0.00 98 1010.8
20260510090544 11 200 0.0 0.0 0.00 1.22 0.00 98 1011.0
20260510090043 11 200 0.0 0.0 0.00 1.22 0.00 98 1011.1
20260510085545 11 200 0.0 0.0 0.00 1.27 0.00 98 1011.1
20260510085041 11 200 0.0 0.0 0.00 1.27 0.00 98 1011.0
20260510084540 11 200 0.0 0.0 0.00 1.27 0.00 98 1010.8
20260510084040 11 200 0.0 0.0 0.00 1.27 0.00 98 1010.8
20260510083540 11 200 0.0 0.0 0.00 1.27 0.00 98 1010.8
20260510083040 11 200 0.0 0.0 0.00 1.27 0.00 98 1010.9
20260510082538 11 200 0.0 0.0 0.00 1.27 0.00 98 1010.8
20260510082038 11 200 0.0 0.0 0.00 1.27 0.00 98 1010.6
20260510081544 11 200 0.0 0.0 0.00 1.27 0.00 98 1010.7
20260510081038 11 200 0.0 0.0 0.00 1.27 0.00 98 1010.6
20260510080538 11 200 0.0 0.0 0.00 1.27 0.00 98 1010.7
20260510080036 11 198 0.0 0.0 0.00 1.27 0.00 98 1010.5
20260510075535 11 198 0.0 0.0 0.00 1.27 0.00 98 1010.4
20260510075037 11 198 0.0 0.0 0.00 1.27 0.00 98 1010.4
20260510074535 11 198 0.0 0.0 0.00 1.27 0.00 98 1010.4
20260510074035 11 198 0.0 0.0 0.00 1.27 0.00 98 1010.4
20260510073535 11 188 0.0 0.0 0.00 1.27 0.00 98 1010.5
20260510073049 11 189 0.0 0.0 0.00 1.27 0.00 98 1010.5
20260510072534 11 188 0.0 0.0 0.00 1.27 0.00 98 1010.4
20260510072035 11 224 0.0 0.0 0.00 1.27 0.00 98 1010.5
20260510071534 11 193 0.0 0.0 0.00 1.27 0.00 98 1010.5
20260510071033 11 155 0.0 0.0 0.00 1.27 0.00 98 1010.5
20260510070534 11 155 0.0 0.0 0.00 1.27 0.00 98 1010.4
20260510070034 11 159 0.0 0.0 0.00 1.27 0.00 98 1010.5
20260510065536 11 159 0.0 0.0 0.00 1.27 0.00 98 1010.4
20260510065035 11 159 0.0 0.0 0.00 1.27 0.00 98 1010.5
20260510064541 11 159 0.0 0.0 0.00 1.27 0.00 98 1010.5
20260510064031 11 159 0.0 0.0 0.00 1.27 0.00 98 1010.4
20260510063531 11 159 0.0 0.0 0.00 1.27 0.00 98 1010.3
20260510063038 11 160 0.0 0.0 0.00 1.27 0.00 98 1010.3
20260510062530 11 159 0.0 0.0 0.00 1.27 0.00 98 1010.0
20260510062030 11 159 0.0 0.0 0.00 1.27 0.00 98 1009.9
20260510061531 11 159 0.0 0.0 0.00 1.27 0.00 98 1009.9
20260510061030 11 159 0.0 0.0 0.00 1.27 0.00 98 1010.0
20260510060529 11 145 0.0 0.0 0.00 1.27 0.00 98 1010.0
20260510060029 11 147 0.0 0.0 0.00 1.27 0.00 98 1010.0
20260510055528 11 146 0.0 0.0 0.00 1.27 0.00 98 1010.1
20260510055030 11 142 0.0 0.0 0.00 1.27 0.00 98 1010.2
20260510054528 11 195 0.0 0.0 0.00 1.27 0.00 98 1010.3
20260510054030 11 210 0.0 0.0 0.00 1.27 0.00 98 1010.2
20260510053527 11 204 0.0 0.0 0.00 1.27 0.00 98 1010.3
20260510053027 11 208 0.0 0.0 0.00 1.27 0.00 98 1010.3
20260510052530 11 208 0.0 0.0 0.00 1.27 0.00 98 1010.3
20260510052027 11 208 0.0 0.0 0.00 1.27 0.00 98 1010.2
20260510051530 11 208 0.0 0.0 0.00 1.27 0.00 98 1010.2
20260510051027 11 208 0.0 0.0 0.00 1.27 0.00 98 1010.1
20260510050530 11 208 0.0 0.0 0.00 1.27 0.00 98 1010.2
20260510050026 11 208 0.0 0.0 0.00 1.27 0.00 98 1010.4
20260510045526 11 168 0.0 0.0 0.00 1.27 0.00 98 1010.4
20260510045028 11 167 0.0 0.0 0.00 1.27 0.00 98 1010.4
20260510044526 11 167 0.0 0.0 0.00 1.27 0.00 98 1010.3
20260510044025 11 167 0.0 0.0 0.00 1.27 0.00 98 1010.4
20260510043524 11 167 0.0 0.0 0.00 1.27 0.00 98 1010.3
20260510043024 11 167 0.0 0.0 0.00 1.27 0.00 98 1010.3
20260510042522 11 167 0.0 0.0 0.00 1.27 0.00 98 1010.2
20260510042022 11 167 0.0 0.0 0.00 1.27 0.00 98 1010.2
20260510041522 11 167 0.0 0.0 0.00 1.27 0.00 98 1010.1
20260510041023 11 167 0.0 0.0 0.00 1.27 0.00 98 1010.1
20260510040522 11 167 0.0 0.0 0.00 1.27 0.00 98 1010.1
20260510040027 11 167 0.0 0.0 0.00 1.27 0.00 98 1010.1
20260510035520 11 138 0.0 0.0 0.00 1.27 1.27 98 1010.1
20260510035019 11 138 0.0 0.0 0.00 1.27 1.27 98 1010.2
20260510034526 11 139 0.0 0.0 0.00 1.27 1.27 98 1010.2
20260510034020 11 139 0.0 0.0 0.00 1.27 1.27 98 1010.2
20260510033518 11 140 0.0 0.0 0.00 1.27 1.27 98 1010.2
20260510033018 11 139 0.0 0.0 0.00 1.27 1.27 98 1010.2
20260510032520 11 134 0.0 0.0 0.00 1.27 1.27 98 1010.2
20260510032018 11 158 0.0 0.0 0.00 1.27 1.27 98 1010.2
20260510031520 11 158 0.0 0.0 0.00 1.27 1.27 98 1010.1
20260510031019 11 158 0.0 0.0 0.00 1.27 1.27 98 1010.2
20260510030518 11 153 0.0 0.0 0.00 1.27 1.27 98 1010.2
20260510030018 11 152 0.0 0.0 0.00 1.27 1.27 98 1010.1
20260510025517 11 184 0.0 0.0 0.00 1.27 1.27 98 1010.0
20260510025018 11 183 0.0 0.0 0.00 1.27 1.27 98 1010.0
20260510024518 11 183 0.0 0.0 0.00 1.27 1.27 98 1010.0
20260510024017 11 183 0.0 0.0 0.00 1.27 1.27 98 1009.9
20260510023518 11 182 0.0 0.0 0.00 1.27 1.27 98 1010.1
20260510023017 11 183 0.0 0.0 0.00 1.27 1.27 98 1010.1
20260510022517 11 183 0.0 0.0 0.00 1.27 1.27 98 1010.2
20260510022017 11 183 0.0 0.0 0.00 1.27 1.27 98 1010.1
20260510021530 11 183 0.0 0.0 0.00 1.27 1.27 98 1010.1
20260510021019 11 183 0.0 0.0 0.00 1.27 1.27 98 1010.2
20260510020516 11 182 0.0 0.0 0.00 1.27 1.27 97 1010.2
20260510020016 11 183 0.0 0.0 0.00 1.27 1.27 97 1010.2
20260510015516 11 183 0.0 0.0 0.00 1.27 1.27 97 1010.2
20260510015019 11 183 0.0 0.0 0.00 1.27 1.27 97 1010.1
20260510014514 11 184 0.0 0.0 0.00 1.27 1.27 97 1010.2
20260510014014 11 184 0.0 0.0 0.00 1.27 1.27 97 1010.2
20260510013515 11 184 0.0 0.0 0.00 1.27 1.27 97 1010.1
20260510013014 11 184 0.0 0.0 0.00 1.27 1.27 97 1010.1
20260510012514 11 184 0.0 0.0 0.00 1.27 1.27 97 1010.1
20260510012014 11 184 0.0 0.0 0.00 1.27 1.27 97 1010.0
20260510011514 11 184 0.0 0.0 0.00 1.27 1.27 97 1009.9
20260510011013 11 184 0.0 0.0 0.00 1.27 1.27 97 1009.9
20260510010513 11 184 0.0 0.0 0.00 1.27 1.27 97 1009.9
20260510010013 11 184 0.0 0.0 0.00 1.27 1.27 97 1010.0
20260510005513 12 184 0.0 0.0 0.00 1.27 1.27 97 1009.9
20260510005013 12 184 0.0 0.0 0.00 1.27 1.27 97 1009.8
20260510004511 12 209 0.0 0.0 0.00 1.27 1.27 97 1009.7
20260510004014 12 183 0.0 0.0 0.03 1.27 1.27 97 1009.7
20260510003512 12 145 0.0 0.0 0.03 1.27 1.27 97 1009.6
20260510003012 12 188 0.0 0.0 0.03 1.27 1.27 97 1009.6
20260510002511 12 188 0.0 0.0 0.03 1.27 1.27 97 1009.5
20260510002011 12 187 0.0 0.0 0.05 1.27 1.27 97 1009.3
20260510001511 12 188 0.0 0.0 0.08 1.27 1.27 97 1009.5
20260510001013 12 188 0.0 0.0 0.08 1.27 1.27 97 1009.5
20260510000511 12 187 0.0 0.0 0.10 1.27 1.27 97 1009.3
20260510000016 12 187 0.0 0.0 0.10 1.27 1.27 97 1009.4
20260509235510 12 188 0.0 0.0 0.13 1.27 1.27 97 1009.5
20260509235011 12 187 0.0 0.0 0.13 1.27 1.27 97 1009.2
20260509234510 12 158 0.0 0.0 0.15 1.27 1.27 97 1009.2
20260509234008 12 158 0.0 0.0 0.15 1.24 1.24 97 1009.4
20260509233509 12 152 0.0 0.0 0.18 1.24 1.24 97 1009.5
20260509233008 12 205 0.0 0.0 0.20 1.24 1.24 97 1009.6
20260509232507 12 138 0.0 0.0 0.23 1.24 1.24 97 1009.6
20260509232007 12 186 0.0 0.0 0.23 1.22 1.22 97 1009.8
20260509231506 12 186 0.0 0.0 0.20 1.19 1.19 97 1010.0
20260509231007 11 196 0.0 0.0 0.23 1.19 1.19 97 1010.0
20260509230506 11 204 0.0 0.0 0.20 1.17 1.17 97 1010.1
20260509230006 11 149 0.0 0.0 0.23 1.17 1.17 97 1010.0
20260509225508 11 165 0.0 0.0 0.23 1.14 1.14 97 1010.1
20260509225005 11 174 0.0 0.0 0.23 1.12 1.12 97 1010.1
20260509224505 11 129 0.0 0.0 0.25 1.12 1.12 97 1010.2